Theta_e
311 317 321 323 325 327 327 328 329 329 329 328 325 325 323 324 324 324 324 323 322 322 320 321 320 318 317 317 317 317 316 317 319 318 318 318 319 320 318 318 316 315 315
309 312 317 322 323 325 327 327 328 329 329 329 328 327 326 325 325 325 324 323 322 322 322 322 322 321 318 318 318 318 317 317 319 314 314 311 311 314 317 316 316 315 315
308 309 311 317 322 323 325 326 327 329 329 329 329 328 327 326 324 324 323 323 324 322 322 323 323 322 321 319 318 319 318 315 317 318 315 310 306 309 313 314 315 315 313
310 311 309 312 318 324 326 327 328 328 329 329 328 326 324 323 324 324 324 324 324 323 323 323 324 323 323 321 320 320 320 318 316 316 319 318 314 307 305 310 311 313 313
309 310 310 310 315 321 325 327 328 328 329 329 329 327 325 326 326 325 323 323 324 324 323 323 323 323 324 323 322 319 320 320 319 315 313 314 317 316 313 309 311 310 311
308 309 310 310 311 318 323 326 327 328 329 328 329 327 325 325 324 324 323 323 324 324 324 323 322 323 323 323 323 323 321 321 321 320 317 314 311 310 310 311 310 311 312
307 307 308 309 310 312 320 324 325 326 328 328 328 328 327 326 325 324 324 324 324 323 323 323 322 322 323 324 324 323 323 323 321 320 319 319 317 316 315 314 312 310 312
304 305 307 308 309 311 314 322 324 325 327 328 327 328 328 328 327 326 326 325 325 325 325 324 323 323 324 324 324 324 323 323 322 321 320 320 319 319 318 316 313 310 310
304 305 307 309 310 311 312 315 323 324 326 327 328 328 328 328 327 328 327 327 327 327 326 325 323 323 323 323 323 323 322 322 321 322 322 321 322 320 318 318 317 313 307
304 305 305 306 308 310 312 313 315 323 324 326 327 328 328 328 328 328 327 327 328 327 326 325 324 323 323 323 322 322 322 321 322 322 320 320 320 318 317 317 317 316 313
303 304 305 306 307 308 309 311 312 314 320 324 325 326 328 328 328 327 327 327 327 327 326 325 324 324 323 323 322 322 321 321 321 320 318 318 318 317 316 316 316 315 315
300 299 300 302 301 303 306 308 308 311 316 320 323 323 325 327 326 326 326 326 326 327 326 326 324 323 323 323 322 322 322 320 319 318 316 316 315 315 316 315 315 314 314
298 299 299 300 300 301 303 305 307 307 311 316 318 320 322 323 325 325 325 325 325 325 326 325 324 324 324 322 322 323 322 320 318 317 315 315 314 313 314 314 313 310 305
298 297 298 299 300 300 300 301 303 305 307 313 315 317 319 321 322 324 324 325 325 324 324 325 325 323 323 322 321 321 321 319 317 315 315 315 314 313 311 310 307 303 300
302 301 301 301 301 301 300 299 300 302 306 309 313 316 318 320 320 320 321 323 323 323 324 323 322 321 320 319 317 316 318 317 313 311 312 311 307 302 305 305 301 300 294
302 304 304 305 303 301 300 300 299 299 302 307 310 314 314 314 316 316 314 317 319 320 320 319 320 318 312 303 304 310 313 311 309 307 303 302 293 297 298 298 298 299 297
301 303 304 305 304 304 302 300 300 298 298 303 306 305 307 305 306 306 305 306 309 311 311 313 313 313 309 301 302 301 311 310 309 304 300 296 295 293 295 295 295 294 296
293 295 299 302 304 305 302 301 299 298 296 298 300 298 299 301 299 300 303 301 302 306 305 304 308 310 306 299 299 297 307 306 304 302 299 296 293 293 291 290 289 288 289
291 293 294 295 297 304 305 301 297 296 294 294 294 295 297 297 296 297 300 301 298 298 300 299 300 301 297 296 296 298 298 295 293 294 295 294 291 291 292 288 286 286 286
289 290 290 292 293 295 298 300 295 293 294 292 293 294 295 297 297 300 299 294 299 299 295 292 297 294 294 294 295 297 294 290 289 287 288 288 290 291 292 288 287 286 285
287 287 288 288 289 290 291 293 296 293 293 291 290 290 294 296 298 298 296 292 295 291 291 291 289 290 291 292 294 294 291 290 288 287 286 286 291 291 291 290 287 287 286
282 284 284 284 285 287 287 289 291 294 291 289 289 289 290 291 294 293 290 291 291 290 289 288 287 287 287 290 293 293 291 292 288 287 286 285 290 291 291 288 290 290 287
279 280 281 280 282 284 284 284 286 289 290 289 288 288 287 288 289 290 289 290 290 292 290 290 289 287 287 289 292 292 292 291 288 287 287 289 290 290 291 290 290 286 286
276 278 278 277 278 281 281 282 284 284 286 288 288 286 287 287 288 289 289 291 290 291 290 290 290 287 286 287 288 289 289 288 287 288 288 288 288 288 287 287 288 286 286
274 275 274 275 276 278 280 281 280 283 283 285 284 286 287 287 287 288 289 290 291 293 291 291 290 287 287 288 289 288 287 287 287 286 286 285 284 283 282 283 284 284 285
271 270 269 271 273 274 275 277 276 277 283 283 285 286 287 286 287 287 286 290 291 291 292 292 291 289 291 290 290 290 290 289 288 285 284 283 283 282 282 282 283 283 282
Wind_Speed
10 11 17 16 15 17 17 18 16 16 13 11 11 10 11 8 8 8 11 11 10 10 8 5 7 6 6 6 6 5 6 5 3 1 1 2 4 6 6 5 5 5 6
17 14 8 16 17 18 19 18 18 18 15 12 11 10 10 9 9 8 9 11 11 12 11 10 7 8 6 7 7 6 4 4 5 4 1 3 4 6 8 5 5 7 5
15 16 14 11 15 18 18 19 20 19 18 18 10 9 8 7 9 10 10 11 13 12 12 12 10 8 8 8 7 7 8 5 4 7 5 3 5 2 2 6 5 6 5
17 17 16 16 16 19 19 21 19 19 19 20 16 19 14 14 13 11 10 11 14 13 13 13 13 10 8 9 10 8 7 6 6 2 7 8 2 1 4 2 3 5 7
19 22 19 17 12 16 19 18 19 19 20 20 19 15 16 14 11 10 13 13 13 15 15 15 13 13 10 11 11 7 11 8 8 4 3 5 6 6 4 8 4 3 4
17 18 14 12 14 12 16 17 19 20 20 20 21 20 20 17 12 13 12 12 10 12 16 16 15 15 13 13 11 11 9 11 9 8 6 6 5 6 6 8 9 8 6
12 9 11 12 12 10 14 17 19 21 21 21 21 22 21 20 19 16 13 14 12 11 16 18 16 14 15 14 13 12 13 13 11 12 10 8 9 6 5 7 6 6 4
7 8 8 8 9 10 9 16 18 20 20 21 22 21 22 15 15 16 13 12 13 14 16 17 17 18 16 15 13 10 11 13 12 15 12 9 8 7 8 8 7 6 5
8 9 8 8 8 7 9 10 17 19 20 21 19 20 20 21 18 20 17 14 15 13 15 17 18 17 17 16 15 12 13 13 12 12 12 11 9 7 5 6 8 8 5
8 8 8 7 7 7 7 8 9 17 19 19 18 18 20 20 19 16 19 19 17 16 15 16 17 17 17 17 16 14 13 14 12 10 12 11 9 6 5 6 7 7 8
2 6 6 5 5 5 6 7 8 9 12 15 17 17 18 20 18 18 18 19 17 16 17 16 17 18 17 16 16 16 14 15 14 12 12 12 10 8 7 6 7 8 8
4 5 6 5 6 6 7 7 7 7 11 12 14 15 15 16 18 18 19 17 18 16 16 16 16 17 17 17 17 18 15 16 14 14 12 13 8 11 9 8 10 9 8
6 6 5 6 6 6 7 7 7 8 7 7 10 12 14 15 17 19 18 17 16 17 16 16 18 18 18 17 17 17 17 15 14 13 13 13 11 11 9 9 8 6 4
7 7 7 8 8 8 8 7 8 8 8 8 8 10 12 14 16 15 15 15 16 16 16 16 17 17 16 15 15 15 16 13 12 12 12 12 12 12 10 9 8 5 4
14 8 8 8 8 9 8 8 8 8 8 9 10 13 13 13 12 12 13 13 14 14 15 15 14 13 13 11 13 12 14 13 10 10 11 10 11 11 10 7 6 6 4
19 19 17 14 11 8 8 8 9 9 7 10 14 13 10 10 12 12 11 12 13 14 13 13 14 12 8 12 14 13 11 10 10 10 7 6 7 8 11 9 8 8 6
14 16 18 16 13 13 9 10 11 8 8 11 11 8 8 8 9 9 9 10 11 9 9 10 11 12 9 15 18 18 11 12 11 10 9 7 4 7 7 8 7 5 6
22 22 21 21 18 14 9 9 8 8 9 10 9 7 9 10 8 7 10 7 7 11 9 8 10 11 10 17 17 17 11 10 10 10 11 11 10 7 8 8 6 5 4
17 17 19 21 22 24 16 9 9 8 9 8 9 10 11 10 8 9 10 8 7 7 8 6 10 12 9 16 17 16 9 8 8 7 8 10 9 13 14 9 8 6 4
18 21 24 22 20 21 25 16 9 9 11 8 13 11 10 11 12 13 11 6 7 9 6 7 11 11 11 17 20 14 8 9 7 5 6 10 10 16 16 10 10 9 7
23 23 21 20 19 20 21 21 16 13 9 9 9 9 11 13 14 12 10 8 9 6 8 8 5 6 8 11 16 13 7 7 7 6 5 4 14 15 15 11 8 6 9
23 20 21 21 20 18 17 19 19 14 9 8 8 9 9 8 8 10 8 8 10 10 8 7 5 3 5 11 14 15 11 14 9 8 6 6 15 16 17 12 12 15 11
21 20 18 22 18 17 16 18 17 19 18 11 10 8 5 6 8 10 9 7 9 10 9 9 9 7 5 7 17 17 17 17 8 7 11 16 16 16 13 15 16 13 7
20 21 22 22 23 19 19 17 17 16 15 15 11 4 5 7 8 6 8 9 9 9 9 10 9 8 8 7 7 7 9 12 8 15 12 13 12 10 9 6 10 6 6
17 19 21 20 21 19 18 15 16 17 15 12 7 5 5 7 8 9 9 10 10 11 12 11 11 12 12 12 14 12 10 9 10 11 9 8 8 7 6 5 5 5 5
16 17 18 18 18 17 17 15 15 15 14 12 8 6 7 4 6 7 2 5 7 8 9 11 11 7 9 19 20 19 18 19 24 9 9 8 8 8 8 7 7 6 6
Wind_Direction
258 235 203 195 186 187 196 210 197 192 185 195 193 195 201 197 197 199 194 187 186 192 195 191 190 184 183 195 198 196 205 226 211 141 239 275 249 244 230 215 215 241 225
246 259 230 193 193 189 192 202 206 195 190 199 199 200 197 198 202 204 198 189 186 191 196 195 198 188 185 196 203 190 194 209 188 176 214 275 290 252 238 215 217 227 226
243 240 234 214 197 198 190 198 206 201 196 197 193 196 199 199 197 202 203 199 192 194 193 194 200 197 186 199 201 197 190 197 209 195 171 207 233 248 234 215 211 220 227
241 244 241 223 209 203 199 199 202 205 205 196 195 196 197 200 204 201 199 203 200 196 198 196 199 202 197 197 203 200 201 176 197 193 215 227 166 264 320 332 234 222 226
234 240 240 240 227 205 201 201 202 207 206 203 204 198 201 207 201 198 196 198 201 201 200 201 198 203 204 206 201 192 201 196 203 179 162 221 228 228 241 275 230 236 232
228 237 231 227 231 218 201 200 202 208 208 207 205 204 206 201 202 201 196 199 199 200 203 202 203 206 207 207 201 204 197 202 207 211 200 188 181 199 202 237 253 251 235
225 223 217 225 228 227 200 200 203 210 210 211 208 209 208 206 206 201 203 195 200 197 205 201 203 206 209 207 203 199 206 203 207 209 216 217 219 204 190 221 247 240 244
264 243 230 230 224 219 206 201 202 211 210 212 214 212 210 210 210 207 203 206 203 204 199 201 205 208 209 209 205 204 206 209 210 214 215 220 219 199 214 223 230 254 249
258 245 241 234 238 233 223 202 206 211 212 213 214 214 212 213 211 211 208 208 207 204 202 198 203 206 206 206 204 207 208 206 209 214 215 217 221 216 196 199 210 228 255
256 259 252 242 242 235 234 226 219 215 213 217 217 216 214 215 218 213 214 212 210 203 198 198 200 204 206 204 203 208 209 206 210 217 219 221 222 207 197 204 213 217 236
278 342 317 306 290 289 255 232 220 227 222 219 224 220 218 217 215 217 216 216 213 204 202 199 197 201 202 202 204 212 208 206 215 211 212 216 207 212 213 206 215 223 226
322 317 314 306 297 279 270 250 256 240 228 220 224 227 221 218 219 220 221 217 216 210 203 203 198 198 201 202 204 207 209 213 209 207 204 215 201 209 208 206 217 222 211
262 257 273 255 250 258 259 249 238 243 250 236 223 223 226 220 221 222 220 218 215 214 209 202 201 202 200 198 203 207 213 209 207 205 205 210 200 210 209 211 212 206 194
266 260 277 271 258 245 248 245 246 225 230 229 221 220 220 224 226 224 221 218 215 211 209 207 207 205 203 202 201 204 211 206 204 201 201 200 200 209 202 207 201 176 168
295 278 266 268 255 245 239 244 242 227 214 221 227 228 225 222 219 222 221 214 212 212 209 207 204 200 201 197 194 193 202 202 192 192 194 196 199 194 188 179 171 165 152
295 296 287 285 281 275 257 251 249 241 206 221 227 229 224 217 215 214 210 211 210 207 204 200 198 196 192 180 183 181 189 187 182 190 185 170 158 156 157 145 151 171 174
293 295 299 297 291 286 253 240 241 229 215 224 231 227 217 223 215 209 198 199 197 189 194 189 184 193 183 182 186 179 187 187 190 181 172 158 160 146 147 149 150 173 169
348 343 337 327 306 285 270 248 238 222 222 222 227 224 221 222 214 211 209 203 183 190 187 184 188 193 194 185 183 180 182 184 183 176 171 165 166 167 154 151 151 152 147
334 328 330 322 321 315 293 251 239 229 232 228 223 223 217 216 198 203 211 201 177 183 192 186 187 192 194 186 178 172 164 160 160 153 156 161 159 166 165 149 149 154 161
335 332 324 320 324 329 328 296 243 230 233 218 232 226 208 211 211 214 208 195 203 213 185 186 191 187 182 179 175 167 156 154 150 133 141 160 160 164 164 157 161 167 171
322 323 317 316 319 321 319 313 294 260 240 229 232 222 211 214 215 209 198 184 193 169 187 189 175 172 172 173 168 158 153 151 145 155 158 157 160 162 166 164 170 168 140
322 321 314 315 319 318 319 316 315 308 291 263 244 232 218 206 206 201 188 183 174 173 170 157 147 142 151 162 164 161 148 153 153 164 159 157 163 164 168 165 162 147 131
314 317 313 313 315 319 321 316 317 317 312 289 259 248 202 202 188 186 184 171 179 183 177 178 177 168 167 169 166 163 161 156 148 152 158 158 163 170 167 166 168 145 144
314 313 317 314 314 321 322 318 322 316 310 291 273 234 221 218 214 192 177 181 185 189 183 183 182 168 164 167 166 165 158 158 148 150 151 156 153 142 133 150 161 154 150
312 315 312 312 314 320 319 326 326 323 320 312 297 263 245 220 224 223 213 205 209 198 189 195 182 172 182 188 172 166 165 163 156 142 143 151 154 146 153 151 140 140 141
318 316 312 308 318 318 318 321 323 320 317 318 308 287 268 237 232 224 218 255 209 200 197 184 184 187 180 165 167 168 160 155 153 152 160 161 159 159 168 162 155 155 153